Regional Weather Roundup
Issued by NWS

Home | Current Version | Previous Version | Text Only | Print | Product List | Glossary Off
Versions: 1 2 3 4 5 6 7 8 9 10 11 12 13 14 15 16 17 18 19 20 21 22 23 24 25 26 27 28 29 30 31 32 33 34 35 36 37 38 39 40 41 42 43 44 45 46 47 48 49 50

000
ASUS43 KIND 050709
RWRIN

WEATHER ROUNDUP FOR INDIANA
NATIONAL WEATHER SERVICE INDIANAPOLIS IN
300 AM EDT SAT SEP 05 2015

NOTE: "FAIR" INDICATES FEW OR NO CLOUDS BELOW 12,000 FEET WITH NO
SIGNIFICANT WEATHER AND/OR OBSTRUCTIONS TO VISIBILITY.

* - STATION DOES NOT REPORT WEATHER SUCH AS PRECIPITATION OR FOG.

+ - STATION NOT QUALITY CONTROLLED BY THE NATIONAL WEATHER SERVICE.
    USE DATA WITH CAUTION...ESPECIALLY DEWPOINT AND RELATIVE
    HUMIDITY OBSERVATIONS.

INZ001>003-010>013-019-020-050800-
NORTHWEST INDIANA

CITY           SKY/WX    TMP DP  RH WIND       PRES   REMARKS
GARY /AIRPORT/ CLEAR     71  69  93 CALM      30.05F FOG
KNOX *+        CLEAR     64  64 100 CALM      30.05F
LA PORTE +     PTCLDY   N/A N/A N/A CALM      30.07F HAZE
MICHIGAN CITY+ MOCLDY    66  66 100 CALM      30.06F FOG
MONTICELLO +   CLEAR     68  66  92 SE3       30.06S
RENSSELAER +   CLEAR     66  66 100 SE3       30.06S
VALPARAISO     PTCLDY    66  65  96 NE3       30.06S FOG

$$

LMZ046-743>745-050800-
SOUTHERN LAKE MICHIGAN

STATION/POSITION TIME  TEMP    WIND        PRES    WAVE
                       AIR SEA DIR/SP/G            HT
                 (UTC) (F)     (DEG/KT/KT) (MB)    (FT)
BURNS HARBOR     0600   73     340/  2/  3 1018.3S
MICHIGAN CITY    0600   71     120/  5/  6   N/A
5NW MICH CITY    0700   72 74  120/  6/  8   N/A     1

$$

INZ004-005-014>016-021>024-050800-
NORTH CENTRAL INDIANA

CITY           SKY/WX    TMP DP  RH WIND       PRES   REMARKS
GOSHEN         MOCLDY    68  64  87 SE3       30.08S
LOGANSPORT +   CLEAR     63  59  88 SE5       30.08S
PERU/GRISSOM   CLEAR     66  65  94 E6        30.08S
ROCHESTER +    CLEAR     70  70 100 SE5       30.08F
SOUTH BEND     PTCLDY    71  66  84 CALM      30.07F
WARSAW +       MOCLDY    66  64  94 CALM      30.08F

$$

INZ006>009-017-018-025>027-050800-
NORTHEAST INDIANA

CITY           SKY/WX    TMP DP  RH WIND       PRES   REMARKS
ANGOLA *+      CLEAR     68  59  73 CALM      30.09F
AUBURN +       MOCLDY    66  63  88 CALM      30.10S
FORT WAYNE     MOCLDY    67  64  90 SE3       30.10S
HUNTINGTON +   CLOUDY    67  62  85 SW3       30.09S

$$

INZ028-029-035-036-043>045-051>053-050800-
WEST CENTRAL INDIANA

CITY           SKY/WX    TMP DP  RH WIND       PRES   REMARKS
CRAWFORDSVL +  CLEAR     62  62 100 CALM      30.07S FOG
GREENCASTLE +  PTCLDY    66  63  88 CALM      30.08S
LAFAYETTE      CLEAR     66  62  87 CALM      30.06S
TERRE HAUTE    PTCLDY    67  64  90 NE3       30.06S

$$

INZ030>032-037>040-046>048-054>057-064-065-050800-
CENTRAL INDIANA

CITY           SKY/WX    TMP DP  RH WIND       PRES   REMARKS
FISHERS *+     CLEAR     64  64 100 CALM      30.09S
FRANKFORT +    CLEAR    N/A N/A N/A CALM      30.09S FOG
GREENWOOD *+   PTCLDY    66  63  88 CALM      30.09S
INDIANAPOLIS   PTCLDY    69  64  84 SE3       30.07F
-EAGLE CREEK   CLEAR     67  66  97 SE3       30.07F
KOKOMO *+      PTCLDY    66  57  72 E5        30.09S
MARION +       MOCLDY    65  60  81 SE5       30.11R
MT COMFORT *+  PTCLDY    61 N/A N/A NE5       30.09S
SHELBYVILLE    PTCLDY    66  63  90 CALM      30.08S
ZIONSVILLE +   CLEAR     64  61  90 CALM      30.09F FOG

$$

INZ033-034-041-042-049-050-058-059-050800-
EAST CENTRAL INDIANA

CITY           SKY/WX    TMP DP  RH WIND       PRES   REMARKS
MUNCIE         PTCLDY    62  62 100 CALM      30.09F

$$

INZ060-061-067>069-081>083-085>088-050800-
SOUTHWEST INDIANA

CITY           SKY/WX    TMP DP  RH WIND       PRES   REMARKS
EVANSVILLE     PTCLDY    76  68  76 SE3       30.05S HAZE
HUNTINGBURG *+ PTCLDY    73  64  73 SE7       30.06R
WASHINGTON +   MOCLDY    73  66  79 S5        30.05S

$$

INZ062-063-066-070>080-084-089>092-050800-
SOUTH CENTRAL AND SOUTHEAST INDIANA

CITY           SKY/WX    TMP DP  RH WIND       PRES   REMARKS
BLOOMINGTON    PTCLDY    72  65  78 SE5       30.08S
MADISON *+     CLEAR     68  64  88 CALM      30.10S
NORTH VERNON + PTCLDY    68  68 100 CALM      30.08F FOG
SEYMOUR +      PTCLDY    66  64  94 CALM      30.07F

$$




USA.gov is the U.S. government's official web portal to all federal, state and local government web resources and services.